Date String (YYYY-MM-DD hh:mm:ss) UTC,Instrument flags,absolute air pressure of the measurement (hPa),sample flow rate (lpm),inlet stack bypass flow (lpm),air temperature of the measurement (°C),ambient temperature measured by the external sensor (°C),aerosol sample conditioner tube jacket temperature (°C),OPC LED temperature (°C),internal box temperature (°C),relative humidity of the measurement (%),span deviation,mass concentration of particles derived from Lorenz-Mie calculation of OPC scattering (μg/m³),mass concentration of particles derived from Lorenz-Mie calculation of OPC scattering (μg/m³),mass concentration of particles derived from Lorenz-Mie calculation of OPC scattering (μg/m³)
DateTimeUTC,F1_M11,P_M11,Q1_M11,Q2_M11,T1_M11,T2_M11,T3_M11,T4_M11,T5_M11,U1_M11,ZSPAN_M11,X2_M11,X0_M11,X1_M11
2023-12-18 15:00:00,SystemResetWarning,0833.0,4.99,000.00,018.8,017.9,000.0,027.1,020.0,12.0,0000.0,0001.36,0004.17,0001.12
2023-12-18 15:01:00,SystemResetWarning,0833.1,4.99,000.00,018.8,017.9,000.0,027.1,020.1,12.0,0000.0,0001.40,0003.12,0001.14
2023-12-18 15:02:00,SystemResetWarning,0833.0,5.00,000.00,018.8,017.9,000.0,027.1,020.1,12.0,0000.0,0001.43,0002.34,0001.15
2023-12-18 15:03:00,SystemResetWarning,0833.1,5.00,000.00,018.8,017.9,000.0,027.1,020.0,12.0,0000.0,0001.47,0002.41,0001.15
2023-12-18 15:04:00,SystemResetWarning,0833.1,5.01,000.00,018.8,017.9,000.0,027.1,020.0,12.1,0000.0,0001.47,0002.37,0001.16
2023-12-18 15:05:00,SystemResetWarning,0833.0,5.01,000.00,018.8,017.9,000.0,027.1,020.1,12.1,0000.0,0001.49,0002.50,0001.17
2023-12-18 15:06:00,SystemResetWarning,0833.1,5.00,000.00,018.8,017.9,000.0,027.1,020.1,12.1,0000.0,0001.51,0002.58,0001.18
2023-12-18 15:07:00,SystemResetWarning,0833.2,5.00,000.00,018.8,017.9,000.0,027.1,020.1,12.1,0000.0,0001.53,0002.81,0001.19
2023-12-18 15:08:00,SystemResetWarning,0833.2,5.00,000.00,018.9,017.9,000.0,027.1,020.1,12.1,0000.0,0001.55,0003.04,0001.20
2023-12-18 15:09:00,SystemResetWarning,0833.2,4.99,000.00,018.9,017.9,000.0,027.1,020.1,12.1,0000.0,0001.59,0003.09,0001.22
2023-12-18 15:10:00,SystemResetWarning,0833.2,4.99,000.00,018.9,017.9,000.0,027.1,020.1,12.1,0000.0,0001.61,0003.58,0001.23
2023-12-18 15:11:00,SystemResetWarning,0833.2,4.99,000.00,018.9,017.9,000.0,027.1,020.1,12.1,0000.0,0001.62,0004.86,0001.24
2023-12-18 15:12:00,SystemResetWarning,0833.2,5.01,000.00,018.9,018.0,000.0,027.1,020.1,12.1,0000.0,0001.61,0004.82,0001.24
2023-12-18 15:13:00,SystemResetWarning,0833.2,5.01,000.00,018.9,018.0,000.0,027.1,020.1,12.1,0000.0,0001.59,0004.82,0001.24
2023-12-18 15:14:00,SystemResetWarning,0833.1,5.01,000.00,018.9,018.0,000.0,027.1,020.2,12.1,0000.0,0001.59,0004.78,0001.25
2023-12-18 15:15:00,SystemResetWarning,0833.1,5.00,000.00,018.9,018.0,000.0,027.1,020.2,12.5,0000.0,0001.60,0004.85,0001.27
2023-12-18 15:16:00,SystemResetWarning,0833.1,5.00,000.00,018.9,018.0,000.0,027.1,020.2,12.8,0000.0,0001.60,0004.91,0001.28
2023-12-18 15:17:00,SystemResetWarning,0833.1,4.99,000.00,018.9,018.0,000.0,027.1,020.2,13.1,0000.0,0001.60,0005.01,0001.27
2023-12-18 15:18:00,SystemResetWarning,0833.2,5.00,000.00,018.9,018.0,000.0,027.1,020.2,13.5,0000.0,0001.61,0005.13,0001.27
2023-12-18 15:19:00,SystemResetWarning,0833.2,5.00,000.00,018.9,018.0,000.0,027.1,020.2,13.3,0000.0,0001.61,0004.93,0001.28
2023-12-18 15:20:00,SystemResetWarning,0833.2,5.01,000.00,018.9,018.1,000.0,027.2,020.2,13.2,0000.0,0001.56,0004.80,0001.27
2023-12-18 15:21:00,SystemResetWarning,0833.1,5.00,000.00,018.9,018.1,000.0,027.2,020.2,13.7,0000.0,0001.52,0004.58,0001.27
2023-12-18 15:22:00,SystemResetWarning,0833.1,5.00,000.00,018.9,018.1,000.0,027.2,020.2,13.9,0000.0,0001.51,0003.00,0001.26
2023-12-18 15:23:00,SystemResetWarning,0833.1,5.01,000.00,018.9,018.1,000.0,027.2,020.2,13.6,0000.0,0001.52,0003.00,0001.25
2023-12-18 15:24:00,SystemResetWarning,0833.0,4.99,000.00,018.9,018.1,000.0,027.2,020.3,13.3,0000.0,0001.52,0003.82,0001.26
2023-12-18 15:25:00,SystemResetWarning,0833.0,5.00,000.00,019.0,018.2,000.0,027.2,020.3,12.8,0000.0,0001.54,0004.22,0001.27
2023-12-18 15:26:00,SystemResetWarning,0833.0,5.00,000.00,019.0,018.2,000.0,027.2,020.3,12.9,0000.0,0001.59,0004.45,0001.27
2023-12-18 15:27:00,SystemResetWarning,0833.0,4.99,000.00,019.0,018.2,000.0,027.2,020.3,13.2,0000.0,0001.66,0004.31,0001.30
2023-12-18 15:28:00,SystemResetWarning,0833.0,5.00,000.00,019.0,018.2,000.0,027.2,020.3,13.1,0000.0,0001.68,0004.83,0001.32
2023-12-18 15:29:00,SystemResetWarning,0833.0,5.00,000.00,019.0,018.2,000.0,027.2,020.3,12.8,0000.0,0001.70,0004.57,0001.34
2023-12-18 15:30:00,SystemResetWarning,0833.0,5.00,000.00,019.0,018.2,000.0,027.2,020.3,12.9,0000.0,0001.71,0004.43,0001.35
2023-12-18 15:31:00,SystemResetWarning,0833.5,5.00,000.00,019.0,018.2,000.0,027.2,020.3,12.9,0000.0,0001.72,0004.53,0001.36
2023-12-18 15:32:00,SystemResetWarning,0833.2,5.01,000.00,019.0,018.2,000.0,027.2,020.3,12.4,0000.0,0001.77,0004.62,0001.38
2023-12-18 15:33:00,SystemResetWarning,0833.2,5.00,000.00,019.0,018.3,000.0,027.2,020.3,12.1,0000.0,0001.77,0004.60,0001.40
2023-12-18 15:34:00,SystemResetWarning,0833.0,5.01,000.00,019.0,018.3,000.0,027.2,020.3,12.3,0000.0,0001.77,0004.94,0001.41
2023-12-18 15:35:00,SystemResetWarning,0833.0,5.00,000.00,019.0,018.3,000.0,027.3,020.3,13.0,0000.0,0001.75,0004.79,0001.41
2023-12-18 15:36:00,SystemResetWarning,0833.2,5.00,000.00,019.0,018.3,000.0,027.3,020.3,13.2,0000.0,0001.73,0004.16,0001.41
2023-12-18 15:37:00,SystemResetWarning,0833.0,5.00,000.00,019.1,018.3,000.0,027.3,020.4,13.2,0000.0,0001.72,0004.02,0001.41
2023-12-18 15:38:00,SystemResetWarning,0833.0,5.00,000.00,019.1,018.3,000.0,027.3,020.4,13.0,0000.0,0001.66,0003.89,0001.38
2023-12-18 15:39:00,SystemResetWarning,0833.0,4.99,000.00,019.1,018.3,000.0,027.3,020.4,12.9,0000.0,0001.64,0003.47,0001.36
2023-12-18 15:40:00,SystemResetWarning,0833.0,5.00,000.00,019.1,018.3,000.0,027.3,020.4,13.0,0000.0,0001.66,0003.72,0001.36
2023-12-18 15:41:00,SystemResetWarning,0832.9,4.99,000.00,019.1,018.3,000.0,027.3,020.4,13.7,0000.0,0001.65,0003.81,0001.36
2023-12-18 15:42:00,SystemResetWarning,0832.9,5.00,000.00,019.1,018.3,000.0,027.3,020.4,13.6,0000.0,0001.68,0003.82,0001.35
2023-12-18 15:43:00,SystemResetWarning,0832.9,5.00,000.00,019.1,018.3,000.0,027.3,020.4,14.0,0000.0,0001.67,0003.84,0001.34
2023-12-18 15:44:00,SystemResetWarning,0833.3,5.00,000.00,019.1,018.4,000.0,027.3,020.4,14.2,0000.0,0001.69,0003.97,0001.31
2023-12-18 15:45:00,SystemResetWarning,0833.3,5.00,000.00,019.1,018.4,000.0,027.3,020.4,14.1,0000.0,0001.70,0003.97,0001.30
2023-12-18 15:46:00,SystemResetWarning,0833.1,5.00,000.00,019.1,018.4,000.0,027.3,020.4,14.1,0000.0,0001.69,0003.29,0001.29
2023-12-18 15:47:00,SystemResetWarning,0832.9,5.01,000.00,019.1,018.4,000.0,027.3,020.4,14.3,0000.0,0001.69,0003.26,0001.28
2023-12-18 15:48:00,SystemResetWarning,0833.2,5.00,000.00,019.2,018.4,000.0,027.4,020.5,13.9,0000.0,0001.67,0003.55,0001.27
2023-12-18 15:49:00,SystemResetWarning,0832.9,5.01,000.00,019.2,018.4,000.0,027.4,020.5,14.0,0000.0,0001.67,0003.96,0001.27
2023-12-18 15:50:00,SystemResetWarning,0832.9,5.00,000.00,019.2,018.5,000.0,027.4,020.5,13.5,0000.0,0001.68,0004.24,0001.28
2023-12-18 15:51:00,SystemResetWarning,0833.0,5.00,000.00,019.2,018.5,000.0,027.4,020.5,13.1,0000.0,0001.64,0003.82,0001.26
2023-12-18 15:52:00,SystemResetWarning,0832.9,5.00,000.00,019.2,018.5,000.0,027.4,020.5,12.9,0000.0,0001.63,0003.67,0001.25
2023-12-18 15:53:00,SystemResetWarning,0833.0,4.99,000.00,019.2,018.5,000.0,027.4,020.5,13.6,0000.0,0001.61,0003.58,0001.24
2023-12-18 15:54:00,SystemResetWarning,0833.3,5.00,000.00,019.2,018.5,000.0,027.4,020.5,13.7,0000.0,0001.60,0003.55,0001.24
2023-12-18 15:55:00,SystemResetWarning,0833.0,5.00,000.00,019.2,018.5,000.0,027.4,020.6,13.8,0000.0,0001.59,0003.60,0001.24
2023-12-18 15:56:00,SystemResetWarning,0833.3,5.00,000.00,019.2,018.6,000.0,027.4,020.6,14.0,0000.0,0001.57,0003.45,0001.24
2023-12-18 15:57:00,SystemResetWarning,0833.0,5.00,000.00,019.3,018.6,000.0,027.5,020.6,14.4,0000.0,0001.60,0003.55,0001.24
2023-12-18 15:58:00,SystemResetWarning,0833.0,5.01,000.00,019.3,018.6,000.0,027.5,020.6,14.2,0000.0,0001.63,0003.74,0001.25
2023-12-18 15:59:00,SystemResetWarning,0833.0,5.00,000.00,019.3,018.7,000.0,027.5,020.6,14.0,0000.0,0001.64,0003.43,0001.27
